Showing default

PAS 1, 19217

Orbit data source: Space-Track

PAS 1, 19217 is a payload satellite owned by Panamsat (US) in GEO that was launched on Wed, 15 Jun 1988 UTC via an ARIANE 44LP launch vehicle from the French Guiana (FRGUI). Payload-class satellites include a variety of spacecraft equipped with specific instruments for various scientific and technological missions. These include communications satellites like Starlink; space stations such as the ISS; scientific satellites like the Hubble; Earth observation satellites from companies like Planet Labs, Umbra, and HawkEye 360; GPS; miniature CubeSats for education and research; and military/defense satellites.

Not visible in the next 10 days
Identifier
19217, 1988-051C
Orbit
GEO
Country
Flag of USUS
Related business
Manufacturer
GE/East Windsor
Mission
Commercial Communications
Bus & Motor
AS3000, TE-M-700-18
Mass
~1,221 kg wet, ~400 kg dry
Launch date (UTC)
1988-06-15 (37 years ago)
Launch vehicle
ARIANE 44LP
Launch site
French Guiana (FRGUI)
Object type
Payload
Rocket body
Debris
Shape & HBR
Hex Poly + 2 Pan, 4.6 m
Radar Cross Section
58.820 m², Large (>1 m²)

Expand to show TLE details & history
Last TLE update: 10 hours ago

TLE from 10 hours ago
0 PAS 1
1 19217U 88051C   25245.89496844 -.00000069  00000-0  00000-0 0  9998
2 19217  14.4495   6.7794 0001416 190.3761 197.2399  0.99389378145322
Epoch: 2025-09-02T21:28Z
TLE epoch observation values (Epoch: 2025-09-02T21:28:45.273Z)
Latitude
6.63416°
Longitude
89.15275°
Altitude
36,040.497 km
Speed
3.065 km/s
True Right ascension
02h 14m 29s
True Declination
6° 37' 39"
Sunlit
Object was in daylight at epoch
Visualization orbit readout
Latitude
Unknown
Longitude
Unknown
Altitude
Unknown
Speed
Unknown
Apparent Right ascension
Unknown
Apparent Declination
Unknown
Sunlit
N/A
Visualization observer readout
Local Sidereal Time
22:58:39
Azimuth
Unknown
Elevation
Unknown
Doppler factor
Unknown
Orbital elements
Apogee altitude
36,042.767 km
Perigee altitude
36,030.756 km
Semi-major axis
42,414.898 km
Eccentricity
0.00014
Inclination
14.4495°
RAAN
6.7794°
Arg. of periapsis
190.3761°
True anomaly
197.23509°
Mean anomaly
197.2399°
Eccentric anomaly
197.2375°
Mean motion
0.24847 °/min
Orbital period
1,448.9 mins
BSTAR
0
Loading maneuver chart data...
Computing Atmospheric mass density...
Loading historical data...
Loading historical data...
Loading historical data...
Loading historical data...
Loading historical data...
Loading historical data...
Loading historical data...

Documentation

Showing up to 5 results
|